aboutsummaryrefslograw-logtreecommitdiffstats up
Branch: master
Commit message (Expand)AuthorDateFilesLines
* Handle RLIMIT_AS on Cygwin (Corinna Vinschen)HEADmasterChristos Zoulas2026-01-26 16:15:38 +00002-1/+2
* Fix nls error message (Corinna Vinschen)Christos Zoulas2026-01-26 15:47:00 +000013-12/+13
* run-builds: Add forky, questing, and pluckyKimmo Suominen2025-11-26 22:13:43 +00001-3/+4
* Typo fixes from spaette (GitHub PR #122)Kimmo Suominen2025-10-24 21:13:03 +010051-104/+105
* Add .mailmapKimmo Suominen2025-10-24 20:37:57 +01001-0/+3
* Fix some gcc-14 nits.Christos Zoulas2025-09-21 18:21:45 +01003-3/+3
* Work around faked-sysv issue slowing down buildsKimmo Suominen2025-07-09 10:05:49 +01001-1/+6
* Style change (NFCI)Kimmo Suominen2025-07-09 10:04:41 +01001-2/+2
* Remove unnecessary (by now) trixie workaroundKimmo Suominen2025-07-09 10:04:14 +01001-6/+0
* Release 6.24.16TCSH6_24_16Kimmo Suominen2025-07-09 08:41:34 +01004-15/+16
* Use $+ instead of $^ in nls/Makefile.inKimmo Suominen2025-07-09 08:30:30 +01002-24/+25
* Remove Travis config (no longer available)Kimmo Suominen2025-05-26 10:52:29 +01001-82/+0
* Remove CodeQL workflow (errors)Kimmo Suominen2025-05-26 10:05:22 +01001-42/+0
* Bump CodeQL workflow versions (v3)Kimmo Suominen2025-05-26 09:25:50 +01001-4/+4
* Release 6.24.15TCSH6_24_15Kimmo Suominen2025-02-04 17:58:17 +00004-15/+16
* Fix logic in previous (16fd2823908f0b3024e0a06ac71c84ee0d18f3b4)Kimmo Suominen2025-02-04 17:54:02 +00001-1/+1
* Need a path so that the tests can find regular commands like sed(1)Christos Zoulas2024-11-30 15:03:18 +00001-0/+1
* Solaris2 needs the same const treatment as linux (Nelson H. F. Beebe)Christos Zoulas2024-11-30 15:00:43 +00001-1/+1
* Fix defined name: It is UTF16_STRINGS not UTF16_STRING.Christos Zoulas2024-11-29 21:18:53 +00001-1/+1
* Release 6.24.14TCSH6_24_14Kimmo Suominen2024-11-26 18:31:51 +00004-15/+16
* Need parens around |...Christos Zoulas2024-11-26 18:16:27 +00001-1/+1
* latest changesChristos Zoulas2024-11-23 18:34:36 +00001-0/+1
* On some systems CODESET is an enum so it does not work in ifdef (T. Nosaka)Christos Zoulas2024-11-23 18:33:44 +00001-1/+1
* Allow UTF16_STRINGS for 4 byte wide chars (T.Nosaka)Christos Zoulas2024-11-23 18:33:39 +00001-1/+1
* Handle the case where we have a bracketed expression with redirection.Christos Zoulas2024-11-08 20:51:12 +00005-3/+9
* Recognize history searches in expansion (requested by mrg)Christos Zoulas2024-09-08 16:11:17 +01004-2/+13
* Remove buster and mantic from build platforms (EOL)Kimmo Suominen2024-09-04 20:51:17 +01001-3/+1
* Release 6.24.13TCSH6_24_13Kimmo Suominen2024-06-12 06:52:47 +01004-15/+16
* Fix !^:h and !^:t failing when no / foundKimmo Suominen2024-06-12 06:28:45 +01003-1/+14
* Regen configure (autoreconf)Kimmo Suominen2024-05-27 04:49:21 +01001-0/+27
* s/gr/el/ for greek locale (josefs10)Christos Zoulas2024-05-26 15:29:21 +01001-2/+2
* Fix crossbuild issue for gethost (josefs10)Christos Zoulas2024-05-26 15:28:36 +01003-2/+21
* Merge branch 'master' of ssh://rebar.astron.com/p/tcsh/tcshChristos Zoulas2024-05-26 14:52:29 +010082-2137/+4841
|\
| * Add noble and remove lunarKimmo Suominen2024-05-16 22:23:54 +01001-3/+3
| * PR/480: fix typoChristos Zoulas2024-04-26 22:43:25 +01001-1/+1
| * Add support for "$?<" (Matheus Garcia)zoulasc2024-04-15 19:58:07 +010017-5/+50
| * comment out unused.zoulasc2024-04-15 19:52:39 +01001-0/+2
| * Typo on ed.chared #91 (108062138)Christos Zoulas2024-04-13 19:20:17 +01001-1/+1
| * Update set1 / nls greek #88 (chrislongros)Christos Zoulas2024-04-13 19:16:41 +01001-4/+4
| * Update set23 / nls greek #87 (chrislongros)Christos Zoulas2024-04-13 19:12:34 +01001-1/+1
| * Fix minor typo / nls set9 greek #86 (chrislongros)Christos Zoulas2024-04-13 19:09:03 +01001-1/+1
| * fix whitespace in set26 / greek #85 (chrislongros)Christos Zoulas2024-04-13 19:05:59 +01001-1/+1
| * Add translations of nls set2 in greek and fix typos #84 (chrislongros)Christos Zoulas2024-04-13 19:04:39 +01001-6/+23
| * Release 6.24.12TCSH6_24_12Kimmo Suominen2024-04-05 07:39:59 +01004-15/+17
| * Fix history mergingKimmo Suominen2024-04-04 06:59:26 +01002-27/+50
| * Remove kinetic and trustyKimmo Suominen2024-03-14 00:04:15 +00001-7/+5
| * Release 6.24.11TCSH6_24_11Kimmo Suominen2024-03-13 23:04:04 +00006-1447/+1350
| * Make nice priority incremental even with setpriority(2)Kimmo Suominen2024-03-13 22:32:25 +00005-4/+23
| * Use LC_ALL instead of LC_COLLATEKimmo Suominen2024-03-11 06:45:30 +00002-2/+3
| * Fix typo in comment (NFCI)Kimmo Suominen2024-03-11 06:43:57 +00001-1/+1
| * Handle qemu output on signal receptionKimmo Suominen2024-03-11 06:21:46 +00001-1/+4
| * Add missing `esac` in run-buildsKimmo Suominen2024-03-09 06:10:55 +00001-0/+1
| * update with more precise info (https://github.com/Krush206)Christos Zoulas2023-11-18 17:10:43 +00001-3/+2
| * update svn script for python3 (https://github.com/Sigmanificient)Christos Zoulas2023-11-18 17:06:56 +00001-23/+33
| * fix various typos (https://github.com/gbergling)Christos Zoulas2023-11-18 17:05:31 +00005-6/+6
| * Free memory so asan does not complain (https://github.com/gregorynisbet-google)Christos Zoulas2023-11-18 17:02:49 +00001-15/+79
| * Add builds for trixie, mantic, and lunar. Remove stretch.Kimmo Suominen2023-06-27 22:47:56 +01001-12/+57
| * Add CodeQL workflow for GitHub code scanning (PR #56)Kimmo Suominen2023-05-21 19:43:50 +01001-0/+42
| * Merge PR #75 (lukem/stdin-tty-tests)Kimmo Suominen2023-05-21 19:20:38 +01002-6/+31
| |\
| | * tests: explicit tests for stdin not a ttyLuke Mewburn2023-05-15 14:29:21 +01002-0/+10
| | * tests: fix stdin-as-tty comment and edit testsLuke Mewburn2023-05-15 13:36:04 +01002-6/+21
| |/
| * Release 6.24.10TCSH6_24_10Kimmo Suominen2023-04-14 12:52:38 +01004-15/+18
| * Improve docker build instructionsKimmo Suominen2023-04-14 12:39:49 +01001-15/+17
| * Revert "tests: reenable comment and edit tests"Kimmo Suominen2023-04-14 12:32:25 +01002-0/+4
| * Fix RELEASE_TAGKimmo Suominen2023-04-13 14:17:42 +01003-1/+11
| * Release 6.24.09Kimmo Suominen2023-04-13 03:33:09 +01004-15/+18
| * warn for LSCOLORS or LS_COLORS instead of colorlsLuke Mewburn2023-04-13 03:33:09 +01008-17/+20
| * ls-F: unsetenv LS*COLOR reapplies other LS*COLORLuke Mewburn2023-04-13 03:33:09 +01006-23/+118
| * tests: check LSCOLORS and LS_COLORS validationLuke Mewburn2023-04-13 03:33:09 +01002-10/+142
| * tcsh.man: improve LSCOLORS docsLuke Mewburn2023-04-13 03:33:09 +01001-30/+38
| * Don't crash if LSCOLORS contains > 11 pairsLuke Mewburn2023-04-13 03:33:09 +01001-0/+2
| * add missing const (for FreeBSD)zoulasc2023-04-11 17:02:40 +01001-1/+1
| * Release 6.24.08TCSH6_24_08Kimmo Suominen2023-04-10 10:26:45 +01004-15/+18
| * Merge PR #71 (lukem/color-improvements)Kimmo Suominen2023-04-10 10:13:17 +010044-551/+2792
| |\
| | * fix completion for enhanced filetype detectionLuke Mewburn2023-03-23 13:14:00 +00003-7/+9
| | * make check: ensure tcsh is up to dateLuke Mewburn2023-03-23 11:57:13 +00001-1/+1
| | * tests: rework ls-F testing, improve commentsLuke Mewburn2023-03-23 11:48:10 +00001-41/+38
| | * Fixes: LS_COLORS extensionsLuke Mewburn2023-03-13 12:24:13 +00001-0/+1
| | * Makefile: fix atlocal regenerationLuke Mewburn2023-03-13 12:20:18 +00001-2/+2
| | * tests: test ls-F extension colorsLuke Mewburn2023-03-13 12:11:06 +000014-3/+84
| | * ls-F: implement more LS_COLORS color varsLuke Mewburn2023-03-13 12:09:19 +000017-55/+241
| | * enhance filetype detection to also return colorvarLuke Mewburn2023-03-13 12:09:09 +00004-131/+173
| | * Fixes: merge and add more LS_COLORS ln=target fixesLuke Mewburn2023-03-13 00:29:13 +00001-3/+3
| | * ls-F: fix intermittent ln=target bugLuke Mewburn2023-03-13 00:02:08 +00002-15/+44
| | * Fixes: recent color ls-F fixesLuke Mewburn2023-03-12 09:03:14 +00001-0/+6
| | * ls-F: fix ln=target resetLuke Mewburn2023-03-12 08:52:12 +00003-1/+42
| | * ls-F: fix ls-F DIR with ln=targetLuke Mewburn2023-03-12 08:36:22 +00005-36/+28
| | * tcsh.man: file type not filetypeLuke Mewburn2023-03-12 08:36:22 +00001-1/+1
| | * tests: add ls-F ln=target failed testLuke Mewburn2023-03-12 08:36:19 +00002-0/+25
| | * tests: extend ls-F testsLuke Mewburn2023-03-12 08:35:43 +00005-59/+178
| | * fix unsetenv CLICOLOR_FORCELuke Mewburn2023-03-12 00:44:48 +00005-9/+17
| | * ls-F: fix LSCOLORS bright handlingLuke Mewburn2023-03-12 00:22:34 +00003-14/+14
| | * tests: check ls-F color defaults and LSCOLORSLuke Mewburn2023-03-12 00:13:17 +00004-5/+93
| | * tests: move expected ls-F output to separate filesLuke Mewburn2023-03-11 23:51:09 +00007-84/+90
| | * tests: add TCSH_DIFF() macro and TESTSUITEREGENLuke Mewburn2023-03-11 23:45:46 +00002-2/+21
| | * tcsh.man: improve color docsLuke Mewburn2023-03-11 23:03:03 +00001-31/+32
| | * regenLuke Mewburn2023-03-11 22:27:18 +00002-85/+107
| | * tests: provide atlocal for common shell test codeLuke Mewburn2023-03-11 22:20:24 +00005-44/+57
| | * testsuite: show count of untested testsLuke Mewburn2023-03-11 13:14:19 +00001-0/+5
| | * tests: reenable comment and edit testsLuke Mewburn2023-03-11 12:46:39 +00002-4/+0
This site is maintained by Jamie Landeg-Jones <jamie@catflap.org>, and is not an official FreeBSD project, nor is it endorsed by the FreeBSD team.